Content
SEND FEEDBACK

Daily
Averages
Monthly
Summary
United States of America

TONERS PLACE, CALIFORNIA


Home > North America > United States > California
Elevation: 1400 feet     Latitude: 38 32N     Longitude: 123 08W

WEATHER
 
SELECT A DAY
Number of Records: 206,951;   Date Range: 1/1/95 - 12/18/14
 
SHARE

PRINT THIS DATA

[ ← Previous Day ]
WEATHER ALMANAC - JANUARY 31, 2013
[ Next Day → ]
[ °C ]   °F
Weather ElementAverageHighLow
Temperature42.6 °F66 °F (2:53 pm)32 °F (6:53 am)
Dewpoint37.2 °F44.1 °F (12:53 pm)30.2 °F (7:18 am)
Humidity83.9 %100 % (1:09 am)43 % (2:53 pm)
Barometer30.24 in30.29 in (7:18 am)30.16 in (3:53 pm)
Wind Speed1.1 mph5.8 mph (3:53 pm)
Weather ElementAverage
Visibility4.5 mi
Wind DirectionENE (64 °)

Weather ElementTotal
Precipitation---
Heating Degree Days16 (Base 65)
Averaged from 40 records on January 31, 2013
WEATHER CONDITIONS BREAKOUT
WIND DIRECTION BREAKOUT
WEATHER BY HOUR - JANUARY 31, 2013
[ °C ]   °F
Local TimeTemperatureDewpointHumidityBarometerVisibilityWind DirectionWind SpeedGust SpeedPrecipitationEventsConditions
1:09 AM37.4 °F37.4 °F100 %30.28 in1.5 miWNW (290°)3.5 mphClear
1:14 AM37.4 °F37.4 °F100 %30.28 in3.0 miCalmClear
1:32 AM37.4 °F35.6 °F93 %30.28 in1.5 miNorth (350°)3.5 mphClear
1:53 AM37.9 °F36.0 °F93 %30.27 in3.0 miCalmClear
2:33 AM35.6 °F33.8 °F93 %30.27 in1.5 miWNW (300°)3.5 mphPartly Cloudy
2:36 AM35.6 °F33.8 °F93 %30.27 in0.8 miNW (310°)3.5 mphMist
3:05 AM37.4 °F35.6 °F93 %30.27 in1.2 miCalmPartly Cloudy
3:15 AM35.6 °F33.8 °F93 %30.27 in0.8 miCalmMist
3:53 AM36.0 °F34.0 °F93 %30.25 in0.5 miCalmFogFog
4:07 AM35.6 °F33.8 °F93 %30.27 in0.2 miCalmFogFog
4:15 AM35.6 °F33.8 °F93 %30.27 in0.5 miCalmFogFog
4:53 AM34.0 °F33.1 °F96 %30.25 in0.8 miCalmMist
4:57 AM35.6 °F33.8 °F93 %30.27 in1.2 miCalmPartly Cloudy
5:05 AM35.6 °F33.8 °F93 %30.27 in0.8 miCalmClear
5:17 AM35.6 °F33.8 °F93 %30.27 in1.0 miCalmMist
5:23 AM33.8 °F32.0 °F93 %30.27 in2.0 miCalmMostly Cloudy
5:34 AM33.8 °F32.0 °F93 %30.27 in0.8 miCalmMist
5:53 AM34.0 °F33.1 °F96 %30.26 in0.5 miCalmFogFog
6:04 AM33.8 °F32.0 °F93 %30.28 in0.2 miCalmFogFog
6:38 AM33.8 °F32.0 °F93 %30.28 in0.5 miCalmFogFog
6:53 AM32.0 °F30.9 °F96 %30.27 in0.2 miCalmFogFog
7:18 AM33.8 °F30.2 °F87 %30.29 in0.2 miCalmFogFog
7:53 AM33.1 °F32.0 °F96 %30.28 in10.0 miCalmFogPatches of Fog
8:53 AM39.9 °F39.0 °F97 %30.29 in10.0 miNNW (330°)4.6 mphClear
9:53 AM48.0 °F42.1 °F80 %30.28 in10.0 miNNW (330°)3.5 mphClear
10:53 AM53.1 °F43.0 °F69 %30.27 in10.0 miCalmPartly Cloudy
11:53 AM59.0 °F43.0 °F55 %30.24 in10.0 miCalmClear
12:53 PM62.1 °F44.1 °F52 %30.22 in9.0 miCalmClear
1:53 PM64.0 °F43.0 °F46 %30.19 in9.0 miVariable3.5 mphClear
2:53 PM66.0 °F43.0 °F43 %30.17 in9.0 miSouth (180°)3.5 mphClear
3:53 PM66.0 °F44.1 °F45 %30.16 in9.0 miSSE (160°)5.8 mphScattered Clouds
4:53 PM63.0 °F44.1 °F50 %30.16 in9.0 miSSE (150°)5.8 mphClear
5:53 PM57.0 °F44.1 °F62 %30.17 in10.0 miSSE (160°)4.6 mphPartly Cloudy
6:53 PM53.1 °F43.0 °F69 %30.17 in10.0 miCalmPartly Cloudy
7:53 PM52.0 °F44.1 °F74 %30.17 in9.0 miCalmClear
8:53 PM45.0 °F41.0 °F86 %30.18 in9.0 miCalmClear
9:53 PM44.1 °F42.1 °F93 %30.18 in10.0 miCalmClear
10:53 PM43.0 °F41.0 °F93 %30.18 in9.0 miCalmClear
11:41 PM39.2 °F37.4 °F93 %30.20 in1.8 miCalmClear
11:53 PM41.0 °F37.9 °F89 %30.18 in4.0 miCalmClear
Hourly data recorded from KSTS, located miles away from Toners Place, California







STORIES FROM OUR PARTNERS